Miscellaneous Local Product
Issued by NWS North Platte, NE

Home | Current Version | Previous Version | Graphics & Text | Print | Product List | Glossary On
Versions: 1 2 3 4 5 6 7 8 9 10 11 12 13 14 15 16 17 18 19 20 21 22 23 24 25 26 27 28 29 30 31 32 33 34 35 36 37 38 39 40 41 42 43 44 45 46 47 48 49 50
801
AXUS43 KLBF 241710
MISLBF


WESTERN AND NORTH CENTRAL NEBRASKA HOURLY WEATHER ROUNDUP
NATIONAL WEATHER SERVICE NORTH PLATTE NE
1100 AM CST SAT FEB 24 2018

NOTE: "FAIR" INDICATES FEW OR NO CLOUDS BELOW 12,000 FEET WITH NO
SIGNIFICANT WEATHER AND/OR OBSTRUCTIONS TO VISIBILITY.

NOTE: STATIONS NOT REPORTING VARIABLES SUCH AS SKY/WEATHER OR
PRESSURE ARE PROVIDED BY RAWS AND APRS NETWORKS AND ARE NOT UNDER
NATIONAL WEATHER SERVICE QUALITY CONTROL.

...OBSERVATIONS IN AND NEAR THE EASTERN PANHANDLE OF NEBRASKA...

CITY           SKY/WX    TMP DP  RH WIND       PRES   REMARKS
PINE RIDGE     MOSUNNY   26  10  50 W15G25    29.72F WCI  14
GORDON         FAIR      26  11  53 W21G29    29.69S HAZE    WCI  12
CHADRON        SUNNY     19   9  65 NW12      29.77S WCI   7
ALLIANCE       SUNNY     24  14  65 W18       29.72S WCI  10
SIDNEY         SUNNY     29   6  38 NW33G45   29.75F WCI  13
CRESCENT LAKE    N/A     27  12  53 W18G26      N/A  WCI  14
$$

...OBSERVATIONS IN NORTHERN NEBRASKA AND FAR SOUTHERN SOUTH DAKOTA...

CITY           SKY/WX    TMP DP  RH WIND       PRES   REMARKS
WINNER         LGT SNOW  17  12  80 SE17      29.79F WCI   1
VALENTINE      LGT SNOW  23  18  81 S7        29.73F WCI  15
AINSWORTH      LGT SNOW  19  18  97 S10       29.75F WCI   7
O`NEILL        LGT SNOW  18  18  98 CALM      29.81F
THEDFORD         N/A     24  19  84 SW8       29.75F WCI  14
BROKEN BOW     CLOUDY    24  21  88 SW6       29.77F WCI  17
ORD            LGT SNOW  20  18  92 SE3       29.79F FOG
ALBION         CLOUDY    21  19  93 CALM      29.83F FOG
VALENTINE NWR    N/A     20  17  88 S8          N/A  WCI  10
HALSEY           N/A     25  20  82 S5          N/A  WCI  19
BUTTE            N/A     12  10  90 SE9         N/A  WCI   0
CHAMBERS         N/A     35  20  55 S3          N/A
EWING            N/A     20  18  92 S3          N/A
$$

...OBSERVATIONS IN SOUTHWEST NEBRASKA AND FAR NORTHEAST COLORADO...

CITY           SKY/WX    TMP DP  RH WIND       PRES   REMARKS
WRAY           FAIR      34  25  69 NW21G28   29.78S WCI  22
HOLYOKE        FAIR      34  16  47 NW16G32   29.77S WCI  23
IMPERIAL       PTSUNNY   29  23  78 W9        29.76F WCI  20
OGALLALA       MOSUNNY   30  24  76 W8        29.75F WCI  23
NORTH PLATTE   LGT SNOW  25  21  85 SW8       29.77F FOG     WCI  16
MCCOOK         SNOW      26  26 100 SW6       29.79F VSB 1/2 WCI  19
LEXINGTON      LGT SNOW  27  25  91 SW5       29.79F WCI  22
STAPLETON        N/A     24  20  85 CALM        N/A
$$

...OBSERVATIONS IN CENTRAL LINCOLN COUNTY AREA...

CITY           SKY/WX    TMP DP  RH WIND       PRES   REMARKS
N.P. AIRPORT   LGT SNOW  25  21  85 SW8       29.77F FOG     WCI  16
N.P. DOWNTOWN    N/A     26  22  85 CALM        N/A
N.P. SOUTHEAST   N/A     25  21  85 SW5         N/A  WCI  19
N.P. HILLCREST   N/A     24  22  92 SW7         N/A  WCI  16
$$

...OBSERVATIONS ACROSS THE ROCKIES AND WESTERN HIGH PLAINS...

CITY           SKY/WX    TMP DP  RH WIND       PRES   REMARKS
RAPID CITY     MOSUNNY   21  11  65 N21       29.71F WCI   5
SCOTTSBLUFF    SUNNY     26   9  48 W30G39    29.75F WCI  10
CHEYENNE       SUNNY     21   0  39 W30G39    29.69F WCI   3
DENVER         MOSUNNY   30   2  30 W25G36    29.75F WCI  16
BERTHOUD PASS  SNOW      -9 -20  59 N33G45    29.57R VSB 1/4 WCI -40
COPPER MTN     CLOUDY     0  -8  71 MISG      29.66R
MONARCH PASS   CLOUDY     0  -6  78 W41       29.78R WCI -30
ASPEN          LGT SNOW  16   6  65 NW3       29.90R
LARAMIE        SUNNY     12   1  61 W30G41    29.74R WCI -10
CASPER         PTSUNNY   12   3  67 SW21      29.80S WCI  -7
$$

...OBSERVATIONS ACROSS THE NORTHERN PLAINS...

CITY           SKY/WX    TMP DP  RH WIND       PRES   REMARKS
BISMARCK       CLOUDY    13   7  77 SE6       29.84F WCI   4
FARGO          FAIR       8   4  83 S18       30.01F WCI -11
PIERRE         LGT SNOW  15  13  91 SE12      29.79F VSB 3/4 WCI   2
SIOUX FALLS    SNOW      17  13  84 NE10      29.90F VSB 1/4 WCI   5
$$

...OBSERVATIONS ACROSS THE CENTRAL AND SOUTHERN PLAINS...

CITY           SKY/WX    TMP DP  RH WIND       PRES   REMARKS
OMAHA          FRZ DRZL  28  26  92 NW7       29.85F VSB 1   WCI  21
GRAND ISLAND   CLOUDY    21  19  92 NE3       29.82F FOG
KANSAS CITY    DRIZZLE   36  35  96 SE16      29.81F FOG     WCI  26
WICHITA        CLOUDY    35  34  96 CALM      29.83S
DODGE CITY     CLOUDY    31  28  89 W13       29.85R WCI  21
OKLAHOMA CITY  CLOUDY    37  36  96 NW13      29.87S WCI  29
DALLAS         TSTM      51  48  89 W17G31    29.83  FOG
AMARILLO       SUNNY     53   2  12 W29G43    29.84F
$$




USA.gov is the U.S. government's official web portal to all federal, state and local government web resources and services.